Location: Baix
(44.7118°N, 4.7648°E)
Time: 03:08:55
(UTC+00:00)

ADEOS - Pass Details

Date: 07 August 2020
Orbit: 792 x 795 km, 98.9° (Epoch: 27 September)

Event Time Altitude Azimuth Distance (km) Brightness Sun altitude
Rises 03:52:50 0° 17° (NNE) 3,307 7.6 -7.3°
Reaches altitude 10° 03:55:12 10° 20° (NNE) 2,373 6.9 -7.0°
Maximum altitude 04:00:24 64° 102° (ESE) 877 4.1 -6.2°
Drops below altitude 10° 04:05:33 10° 184° (S) 2,353 5.7 -5.4°
Sets 04:07:53 0° 187° (S) 3,278 6.4 -5.0°
